Temperature
7 7 7 7 7 7 8 8 8 7 7 7 7 7 7 7 7 7 7 7 7 7 7 7 7 7 7 7 7 7 6 6 6 6 6 5 5 5 5 5 5 5 5
6 6 6 7 7 7 7 7 7 7 7 7 7 7 7 7 7 7 7 7 7 7 7 7 6 6 6 6 6 6 6 6 5 5 5 5 5 5 5 5 5 5 5
5 5 6 6 6 6 6 6 7 6 6 6 6 6 7 6 6 6 6 6 6 6 6 6 6 6 6 6 6 6 6 5 5 5 5 5 5 4 4 5 4 4 4
5 5 5 5 5 5 5 6 6 6 6 6 6 6 6 6 6 6 6 6 6 6 6 6 6 6 5 5 5 5 5 5 5 5 4 4 4 4 4 4 4 4 4
4 4 5 5 5 5 5 5 5 5 5 5 5 5 5 5 5 5 5 5 5 5 5 5 5 5 5 5 5 5 4 4 4 4 4 4 4 4 4 4 3 4 4
3 4 4 4 4 4 4 5 5 5 5 5 5 5 5 5 5 5 5 5 5 5 5 5 5 5 5 4 4 4 4 4 4 4 4 4 3 3 3 3 3 3 3
3 3 3 3 4 4 4 4 4 4 4 4 4 4 4 4 4 4 4 4 4 4 4 4 4 4 4 4 4 4 4 3 3 3 3 3 3 3 3 3 3 2 2
2 2 3 3 3 3 3 3 3 3 3 3 4 4 4 4 4 4 4 4 4 4 4 4 4 4 4 4 4 3 3 3 3 3 3 3 3 2 2 2 2 2 2
1 2 2 2 2 2 3 3 3 3 3 3 3 3 3 3 3 3 3 3 3 3 3 3 3 3 3 3 3 3 3 3 3 2 2 2 2 2 1 1 1 1 1
1 1 1 1 2 2 2 2 2 2 2 2 2 2 2 2 2 2 2 3 3 3 3 3 3 3 3 3 3 3 3 2 2 2 2 2 1 1 1 1 0 0 0
-0 0 0 1 1 1 1 1 1 1 1 1 1 1 2 2 2 2 2 2 2 2 2 2 2 2 2 2 2 2 2 2 2 1 1 1 1 1 0 0 -0 -0 -0
-1 -1 -0 -0 0 0 1 1 1 1 1 1 1 1 1 1 1 1 1 1 1 2 2 2 1 1 1 1 1 1 1 1 1 0 0 0 0 0 -0 -0 -0 -1 -1
-1 -1 -1 -1 -1 -0 -0 0 0 0 0 0 0 0 0 0 0 0 0 0 0 1 1 1 1 1 0 0 0 0 0 0 0 -0 -0 -0 -0 -0 -1 -1 -1 -1 -1
-2 -2 -1 -1 -1 -1 -1 -1 -0 -0 -0 -0 -1 -1 -1 -0 -0 -0 -0 -0 -0 -0 -0 -0 -0 -0 -0 -0 -0 -0 -0 -1 -1 -1 -1 -1 -1 -1 -1 -1 -2 -2 -2
-3 -2 -2 -2 -2 -2 -2 -2 -1 -1 -1 -1 -1 -1 -1 -1 -1 -1 -1 -1 -1 -1 -1 -1 -1 -1 -1 -1 -1 -1 -1 -1 -1 -1 -1 -2 -2 -2 -2 -2 -2 -2 -2
-3 -3 -3 -3 -3 -2 -2 -2 -2 -2 -2 -2 -2 -2 -2 -2 -2 -2 -2 -2 -2 -2 -2 -2 -2 -2 -2 -2 -2 -2 -2 -2 -2 -2 -2 -2 -2 -2 -3 -3 -3 -3 -3
-4 -4 -4 -4 -3 -3 -3 -3 -3 -3 -3 -3 -3 -3 -3 -3 -2 -2 -2 -2 -2 -2 -2 -3 -3 -3 -3 -3 -3 -3 -3 -3 -3 -3 -3 -3 -3 -3 -3 -3 -4 -4 -4
-5 -5 -4 -4 -4 -4 -4 -4 -3 -3 -3 -3 -3 -3 -3 -3 -3 -3 -3 -3 -3 -3 -3 -3 -3 -3 -3 -3 -3 -3 -3 -3 -3 -3 -3 -4 -4 -4 -4 -4 -4 -4 -4
-5 -5 -5 -5 -5 -4 -4 -4 -4 -4 -4 -4 -4 -4 -4 -4 -4 -4 -4 -4 -4 -4 -4 -4 -4 -4 -4 -4 -4 -4 -4 -4 -4 -4 -4 -4 -4 -4 -5 -5 -5 -5 -5
-6 -6 -5 -5 -5 -5 -5 -5 -5 -5 -5 -5 -5 -5 -5 -4 -4 -4 -4 -4 -4 -4 -4 -4 -4 -4 -4 -4 -4 -4 -4 -4 -4 -4 -5 -5 -5 -5 -5 -5 -5 -5 -5
-6 -6 -6 -6 -6 -6 -6 -5 -5 -5 -5 -5 -5 -5 -5 -5 -5 -5 -5 -5 -5 -5 -5 -5 -5 -5 -5 -5 -5 -5 -5 -5 -5 -5 -5 -5 -5 -6 -6 -6 -6 -6 -6
-7 -7 -7 -7 -7 -7 -6 -6 -6 -6 -6 -6 -6 -6 -6 -6 -5 -5 -5 -5 -5 -5 -5 -5 -5 -5 -5 -5 -5 -5 -5 -5 -5 -6 -6 -6 -6 -6 -6 -6 -6 -7 -7
-8 -8 -7 -7 -7 -7 -7 -7 -7 -7 -7 -6 -6 -6 -6 -6 -6 -6 -6 -6 -6 -6 -6 -6 -6 -6 -6 -6 -6 -6 -6 -6 -6 -6 -6 -6 -6 -6 -7 -7 -7 -7 -7
-8 -8 -8 -8 -8 -8 -8 -8 -8 -7 -7 -7 -7 -7 -7 -7 -6 -6 -6 -6 -6 -6 -6 -6 -6 -6 -6 -6 -6 -6 -6 -6 -6 -6 -6 -6 -7 -7 -7 -7 -7 -8 -8
-9 -8 -8 -8 -8 -8 -8 -8 -8 -8 -8 -8 -7 -7 -7 -7 -7 -7 -7 -7 -7 -7 -7 -7 -7 -7 -7 -6 -6 -6 -6 -6 -7 -7 -7 -7 -7 -7 -7 -8 -8 -8 -8
-9 -9 -9 -9 -9 -9 -9 -9 -8 -8 -8 -8 -8 -8 -8 -8 -8 -8 -7 -7 -7 -7 -7 -7 -7 -7 -7 -7 -7 -7 -7 -7 -7 -7 -7 -7 -7 -8 -8 -8 -8 -8 -8
Wind_Speed
1 1 2 2 2 2 3 4 4 4 5 6 6 6 6 5 5 5 5 5 6 5 4 5 5 4 3 3 3 3 3 3 3 2 1 1 1 1 1 1 2 3 3
0 1 2 2 2 2 3 3 4 4 4 5 5 6 6 6 6 6 6 6 6 6 5 5 4 4 4 3 3 3 3 3 3 3 2 1 2 2 1 1 2 3 4
1 1 2 2 2 2 2 2 3 4 4 4 5 5 6 6 6 6 6 6 6 6 6 6 5 5 4 4 4 4 3 2 2 3 2 1 1 1 1 1 1 2 4
2 1 1 1 2 2 1 2 2 3 4 4 5 5 5 5 6 6 6 6 5 5 5 5 5 6 6 5 5 5 4 3 3 3 2 2 1 1 1 1 2 1 2
2 2 1 0 1 1 1 2 2 3 3 4 4 4 4 4 5 6 6 6 6 4 4 4 4 5 6 5 5 5 5 4 3 3 3 2 2 2 2 2 2 2 2
3 2 2 0 1 1 1 1 2 3 3 4 4 4 4 4 5 7 6 5 5 5 4 3 3 4 5 5 5 6 6 6 5 4 3 3 3 3 2 2 2 1 3
3 3 2 1 1 1 1 2 2 2 3 3 4 4 4 4 5 6 6 5 5 5 5 4 3 3 3 3 3 4 4 5 6 6 5 5 4 4 4 3 3 3 4
3 3 3 2 0 0 1 2 2 2 3 3 3 3 3 3 4 5 5 4 4 4 4 5 4 4 4 4 3 3 2 3 4 4 5 5 4 5 5 4 4 2 2
3 3 3 2 1 1 1 1 2 2 2 2 2 3 3 2 4 5 4 3 3 2 3 3 4 4 5 6 4 3 2 1 2 4 4 3 3 4 4 2 1 1 3
3 3 3 2 1 0 1 1 1 2 2 2 2 2 2 2 3 4 4 3 3 2 2 2 4 5 5 5 4 4 3 2 2 1 1 1 1 2 4 4 3 3 2
3 3 2 2 1 1 1 1 2 2 2 3 2 1 1 1 2 3 4 3 3 3 2 1 2 4 4 5 4 3 4 3 2 2 1 1 0 1 1 2 3 3 3
2 3 2 2 1 1 2 1 2 3 3 2 2 1 1 0 1 2 3 3 3 2 2 2 2 3 3 3 2 3 4 3 2 2 1 1 1 1 1 2 2 3 4
3 2 2 3 2 1 1 2 2 2 2 2 2 1 1 1 1 1 2 3 3 2 1 2 2 3 2 2 3 3 3 2 2 2 2 2 1 1 0 1 1 2 2
2 2 2 2 2 2 1 1 1 1 2 2 2 2 1 0 0 1 1 2 2 2 2 3 3 3 2 2 2 1 1 2 2 2 1 1 0 0 1 1 1 1 1
2 2 2 2 1 1 2 1 0 0 1 2 2 2 2 2 2 3 2 2 2 3 3 2 1 1 1 1 1 1 1 1 1 1 1 1 1 1 1 1 1 1 1
1 1 1 1 1 1 1 2 4 2 2 1 1 1 1 2 3 3 3 3 4 5 3 2 2 2 2 2 2 1 1 1 1 1 1 1 1 1 1 1 1 2 2
1 1 1 1 0 0 0 1 1 3 4 2 1 1 1 2 2 3 3 3 4 4 2 2 2 2 2 2 2 2 2 2 1 2 2 2 2 2 2 2 2 2 3
2 2 1 0 0 0 0 0 0 1 1 1 1 1 1 1 1 1 2 2 1 1 1 2 2 2 2 2 2 2 2 1 1 2 2 2 2 2 2 3 3 3 3
2 2 1 1 1 0 0 0 0 1 1 0 1 1 1 1 2 1 1 1 1 1 1 2 2 2 2 2 2 2 2 2 2 2 2 2 2 2 3 3 3 4 3
2 3 3 1 1 1 1 0 0 1 0 0 0 0 1 1 1 1 1 0 1 1 1 2 2 2 2 2 2 2 2 2 2 2 2 3 3 3 3 4 3 3 3
2 2 3 2 1 1 1 1 0 0 0 0 1 1 1 0 0 0 0 0 1 1 2 2 2 2 2 2 2 2 3 3 3 3 3 3 3 3 3 3 3 3 3
2 2 2 2 2 1 1 1 1 1 1 1 1 1 2 1 1 1 1 1 1 1 1 1 2 2 2 2 2 3 3 3 3 3 3 3 3 3 3 3 3 3 3
2 2 2 2 2 2 2 2 1 1 1 1 1 1 1 1 1 1 1 1 1 1 1 1 1 1 2 3 3 4 4 4 4 4 4 4 4 4 4 4 4 4 4
1 1 2 2 2 1 2 2 1 1 1 1 1 1 1 1 1 1 1 1 2 2 2 2 2 3 4 4 4 4 5 6 6 6 6 5 4 4 4 4 4 5 5
1 1 1 1 2 2 2 2 2 2 2 2 1 1 1 1 1 2 1 1 2 2 3 3 3 4 4 5 5 5 5 6 5 5 6 5 5 5 5 5 5 5 5
1 1 1 1 1 2 2 2 2 2 2 2 2 1 1 2 2 2 2 2 2 2 3 4 4 5 6 6 6 6 6 6 6 6 5 4 4 4 4 4 5 5 5
Wind_Direction
119 147 147 172 180 171 170 180 182 182 176 179 182 181 182 180 175 173 177 172 177 179 180 185 195 185 186 185 180 182 186 179 211 247 206 177 172 190 286 292 290 284 284
106 154 159 158 155 168 180 181 175 178 183 181 178 179 182 182 179 177 177 176 180 182 182 180 195 189 190 187 183 192 195 187 190 219 225 201 219 212 220 250 278 272 276
36 130 140 148 156 172 188 186 178 176 176 173 170 178 183 183 180 179 177 179 184 189 186 187 194 185 195 196 190 194 193 184 179 192 219 219 242 216 228 262 273 282 289
21 55 129 166 177 184 190 189 184 178 173 173 175 180 183 183 178 176 173 175 182 189 188 190 193 193 198 196 195 193 178 173 169 177 199 219 237 225 206 242 282 289 290
15 16 346 218 161 160 167 173 178 175 175 176 170 174 176 178 178 173 173 176 180 182 185 192 198 200 202 200 197 190 180 183 180 188 203 210 223 216 229 229 262 292 290
14 3 352 50 126 141 154 154 170 178 172 165 171 173 174 182 175 172 171 175 176 178 186 190 196 194 197 197 194 191 190 192 197 201 215 215 225 223 220 218 241 286 287
14 7 3 22 91 136 154 147 161 178 166 165 171 165 169 171 162 169 173 172 173 184 188 186 189 187 181 185 188 186 199 205 202 200 207 221 221 212 204 218 224 231 250
13 10 7 7 36 126 143 151 159 162 160 170 168 164 162 163 155 158 160 163 168 182 187 186 184 186 188 181 174 177 192 214 210 206 208 217 215 200 200 215 229 245 268
1 353 356 6 38 112 153 160 158 143 140 154 154 152 158 159 153 157 151 149 156 173 184 181 181 188 188 175 167 175 185 230 214 203 207 208 206 207 193 170 201 243 278
342 338 342 355 28 108 143 149 133 129 138 133 116 135 161 164 156 159 152 154 159 170 173 183 184 184 183 178 175 177 194 214 176 147 160 159 171 190 197 195 204 224 254
341 348 355 8 21 66 106 119 129 133 129 129 128 126 144 160 155 166 168 169 175 171 175 186 191 179 181 184 182 192 199 177 161 169 179 182 140 176 215 225 218 218 231
358 359 6 17 24 60 96 101 118 132 133 135 129 110 83 116 134 157 165 168 166 164 181 195 178 163 166 174 184 178 167 147 139 150 177 215 230 244 255 269 266 258 248
11 10 12 18 26 50 94 117 116 127 143 149 150 150 111 81 107 124 154 151 150 157 164 157 150 150 144 149 160 160 153 153 154 169 201 245 261 249 248 327 335 338 324
12 11 18 33 33 35 35 99 143 156 161 162 170 170 158 127 146 167 171 151 139 133 132 129 119 109 100 110 119 122 147 173 177 195 215 258 286 272 260 275 281 308 314
19 17 24 25 35 43 35 33 115 214 195 186 189 183 187 205 211 192 182 179 178 172 139 112 106 114 119 102 92 125 156 173 188 194 182 219 231 254 283 293 278 281 273
28 18 15 29 44 54 66 42 36 45 52 88 193 212 235 216 191 190 192 186 176 159 142 153 171 185 196 199 199 210 219 214 214 199 193 203 225 235 259 280 278 268 271
17 9 357 6 40 77 94 102 55 35 44 55 87 154 175 175 176 185 183 174 170 160 163 172 189 202 210 213 214 217 228 226 204 198 205 207 213 226 241 254 262 272 274
13 360 346 325 320 3 153 163 166 140 55 30 39 81 118 135 142 143 150 144 162 166 179 191 203 209 212 216 221 231 230 215 207 210 213 216 215 223 235 242 244 252 266
15 6 6 7 1 19 78 111 126 136 140 76 35 40 58 76 75 82 96 149 188 208 208 212 215 214 216 221 226 227 219 216 220 221 222 224 222 225 239 241 243 259 269
12 13 15 27 35 34 51 84 132 148 148 214 278 345 32 43 58 27 13 81 207 226 224 226 229 224 218 218 219 217 220 220 219 224 229 225 224 227 236 239 239 245 255
4 14 21 27 26 15 18 26 35 173 224 308 327 339 351 36 223 253 268 265 241 240 238 235 234 227 225 220 216 217 222 229 226 225 229 229 225 233 241 241 244 246 254
0 5 18 25 19 16 16 17 28 36 40 7 345 2 20 22 340 296 293 295 290 273 249 243 239 240 230 227 222 223 230 235 228 224 229 231 230 233 237 241 244 246 248
3 10 15 17 18 18 12 15 17 12 2 347 345 357 9 9 350 337 327 325 321 317 310 280 255 265 275 266 250 236 233 238 237 227 223 227 230 231 232 238 241 244 246
8 9 9 7 11 16 9 1 360 360 357 352 353 3 3 356 343 335 329 325 333 337 335 320 296 281 285 290 281 267 262 260 252 240 229 225 228 231 234 237 240 243 246
12 10 4 1 2 0 357 356 356 358 356 354 357 359 356 349 343 337 332 339 337 332 324 316 308 299 293 293 293 287 281 276 269 254 238 232 230 230 234 239 241 245 248
18 10 359 356 357 355 352 350 351 352 348 345 343 346 343 331 329 329 328 329 323 319 314 310 304 300 299 298 294 289 285 282 277 270 254 240 233 234 233 240 244 247 251
Height
1468 1470 1472 1475 1478 1480 1482 1485 1487 1489 1491 1494 1497 1499 1501 1503 1506 1508 1510 1513 1515 1518 1521 1523 1525 1527 1529 1531 1532 1533 1534 1536 1535 1536 1538 1539 1539 1540 1540 1541 1541 1541 1541
1465 1467 1469 1472 1474 1476 1479 1481 1484 1486 1488 1491 1493 1495 1497 1500 1502 1504 1507 1509 1511 1513 1516 1518 1520 1523 1524 1526 1527 1529 1530 1531 1532 1531 1533 1534 1535 1536 1536 1537 1537 1537 1537
1464 1465 1467 1469 1471 1473 1475 1478 1480 1482 1484 1486 1489 1491 1493 1496 1498 1501 1503 1505 1507 1510 1512 1514 1516 1518 1520 1522 1523 1524 1526 1527 1528 1528 1528 1530 1531 1532 1532 1532 1533 1532 1532
1462 1463 1465 1466 1468 1470 1472 1475 1477 1479 1481 1483 1485 1487 1490 1492 1494 1496 1499 1501 1504 1506 1509 1511 1513 1514 1516 1518 1519 1520 1522 1523 1524 1524 1524 1525 1526 1527 1528 1527 1528 1528 1528
1460 1461 1463 1464 1466 1468 1470 1472 1474 1476 1477 1479 1482 1484 1487 1488 1490 1492 1495 1498 1500 1502 1505 1507 1509 1511 1512 1514 1515 1516 1517 1519 1520 1520 1520 1521 1522 1522 1523 1523 1523 1523 1523
1459 1460 1461 1462 1463 1465 1467 1469 1471 1473 1474 1476 1478 1481 1482 1484 1487 1490 1492 1494 1496 1499 1501 1503 1505 1506 1508 1509 1511 1512 1514 1515 1515 1516 1516 1517 1517 1518 1519 1519 1518 1518 1517
1457 1458 1459 1460 1461 1463 1464 1466 1468 1470 1471 1473 1475 1477 1479 1482 1484 1486 1488 1491 1493 1495 1497 1499 1501 1503 1504 1505 1507 1508 1509 1510 1512 1512 1512 1512 1513 1514 1514 1514 1514 1513 1513
1456 1456 1457 1458 1459 1461 1462 1463 1465 1467 1468 1470 1472 1474 1476 1479 1481 1483 1485 1487 1489 1492 1494 1495 1497 1499 1500 1502 1502 1503 1504 1506 1507 1508 1508 1508 1509 1509 1510 1510 1509 1509 1508
1454 1455 1455 1456 1457 1458 1460 1461 1463 1465 1466 1468 1469 1471 1473 1475 1478 1480 1482 1484 1486 1488 1490 1492 1493 1495 1496 1497 1498 1499 1500 1501 1502 1503 1504 1504 1504 1504 1505 1505 1504 1504 1502
1453 1453 1454 1454 1455 1456 1458 1459 1461 1462 1464 1466 1467 1469 1471 1473 1475 1477 1479 1481 1482 1484 1486 1488 1490 1491 1492 1493 1494 1495 1495 1496 1497 1498 1498 1499 1499 1499 1500 1500 1500 1499 1498
1451 1451 1452 1452 1453 1454 1455 1457 1459 1460 1462 1463 1465 1466 1468 1470 1472 1474 1476 1478 1479 1481 1482 1484 1485 1487 1488 1489 1490 1491 1492 1492 1493 1493 1494 1494 1494 1494 1495 1495 1495 1495 1494
1450 1449 1450 1450 1451 1452 1453 1455 1456 1458 1459 1461 1462 1464 1466 1468 1470 1471 1473 1475 1476 1477 1478 1480 1482 1483 1484 1485 1486 1487 1488 1488 1489 1489 1489 1489 1490 1490 1490 1490 1490 1490 1489
1447 1448 1448 1449 1449 1450 1451 1452 1454 1455 1457 1458 1460 1461 1463 1465 1467 1469 1470 1472 1473 1474 1475 1477 1478 1479 1480 1481 1482 1483 1484 1484 1485 1485 1485 1485 1486 1486 1486 1486 1485 1485 1484
1445 1446 1446 1447 1447 1448 1449 1451 1452 1453 1455 1456 1458 1459 1460 1462 1464 1465 1467 1468 1470 1471 1472 1473 1474 1476 1477 1478 1478 1479 1480 1480 1481 1481 1480 1481 1481 1481 1481 1480 1480 1479 1479
1444 1444 1444 1445 1446 1447 1448 1449 1450 1452 1453 1455 1456 1457 1458 1459 1461 1463 1464 1465 1466 1467 1468 1469 1470 1472 1473 1473 1474 1475 1476 1476 1476 1476 1476 1476 1476 1476 1476 1475 1475 1474 1474
1442 1443 1443 1444 1444 1445 1446 1447 1448 1450 1451 1453 1454 1455 1456 1457 1458 1459 1461 1462 1463 1464 1465 1465 1466 1468 1468 1469 1470 1471 1471 1472 1472 1472 1472 1472 1472 1472 1471 1471 1470 1470 1469
1441 1441 1442 1442 1443 1444 1444 1445 1446 1448 1449 1450 1451 1452 1453 1454 1455 1456 1457 1459 1460 1461 1462 1462 1463 1464 1465 1466 1466 1467 1467 1468 1468 1468 1468 1468 1468 1467 1467 1466 1466 1465 1464
1440 1441 1441 1441 1441 1442 1443 1443 1444 1445 1446 1447 1449 1450 1451 1452 1452 1453 1454 1455 1456 1457 1458 1459 1460 1461 1462 1462 1463 1463 1463 1463 1463 1463 1463 1463 1463 1462 1462 1461 1461 1460 1459
1439 1439 1439 1439 1440 1440 1441 1442 1442 1443 1444 1445 1446 1447 1448 1449 1450 1450 1451 1452 1452 1453 1454 1455 1456 1457 1458 1458 1459 1459 1459 1459 1459 1459 1459 1458 1458 1458 1457 1457 1456 1456 1455
1438 1438 1438 1438 1438 1438 1439 1440 1440 1441 1442 1443 1443 1444 1445 1446 1446 1447 1448 1449 1449 1450 1451 1452 1453 1453 1454 1454 1454 1455 1455 1455 1455 1455 1454 1454 1454 1454 1453 1453 1452 1451 1450
1437 1437 1436 1436 1437 1437 1437 1438 1438 1439 1439 1440 1441 1442 1443 1444 1444 1445 1446 1446 1447 1447 1448 1448 1449 1449 1450 1450 1450 1450 1450 1450 1450 1450 1450 1450 1449 1449 1449 1448 1448 1447 1446
1437 1436 1436 1435 1436 1436 1436 1436 1436 1437 1437 1438 1438 1440 1440 1441 1441 1442 1443 1443 1443 1444 1444 1445 1445 1445 1445 1446 1446 1446 1446 1445 1445 1446 1445 1445 1445 1445 1444 1444 1443 1442 1441
1436 1436 1435 1435 1435 1435 1435 1435 1435 1435 1435 1436 1436 1437 1438 1438 1439 1439 1439 1440 1440 1440 1441 1441 1441 1441 1441 1442 1442 1442 1442 1441 1441 1441 1441 1441 1441 1440 1440 1439 1438 1437 1437
1436 1436 1435 1435 1434 1434 1434 1434 1434 1434 1434 1434 1435 1435 1436 1436 1436 1437 1437 1437 1437 1437 1437 1438 1438 1438 1438 1438 1438 1438 1438 1438 1437 1437 1437 1436 1436 1436 1435 1434 1434 1433 1432
1436 1435 1435 1434 1434 1434 1433 1433 1433 1433 1433 1433 1434 1434 1434 1434 1434 1434 1435 1435 1435 1435 1435 1435 1435 1434 1434 1434 1434 1434 1434 1433 1433 1433 1432 1432 1432 1431 1430 1430 1429 1428 1427
1435 1435 1434 1434 1433 1433 1433 1433 1433 1433 1433 1433 1433 1433 1433 1433 1433 1432 1432 1432 1432 1432 1432 1432 1432 1431 1431 1431 1430 1430 1430 1429 1429 1429 1428 1428 1427 1426 1426 1425 1424 1424 1423